Fremont, MI

8:08 AM EST on November 17, 2019 (GMT -0500)
Fremont

Weather History for KFFX - July, 2019

Change the Weather History Date:

Saturday, July 13, 2019

  Actual Average (KMKG) Record (KMKG)
Temperature  
Mean Temperature 74 °F -  
Max Temperature 87 °F 81 °F 93 °F (1995)
Min Temperature 60 °F 60 °F 45 °F (1940)
Cooling Degree Days 8    
Growing Degree Days 24 (Base 50)    
Moisture  
Dew Point 59 °F    
Average Humidity 61    
Maximum Humidity 93    
Minimum Humidity 33    
Precipitation  
Precipitation 0.00 in - - ()
Sea Level Pressure  
Sea Level Pressure 29.96 in    
Wind  
Wind Speed 4 mph (WNW)    
Max Wind Speed 16 mph    
Max Gust Speed 21 mph    
Visibility 10 miles    
Events      
Averages and records for this station are not official NWS values.
T = Trace of Precipitation, MM = Missing Value Source: NWS Daily Summary

Daily Weather History Graph

Daily Weather History Graph

Search for Another Location

Airport or City:

Astronomy

Jul. 13, 2019 Rise Set
Actual Time 6:15 AM EDT 9:23 PM EDT
Civil Twilight 5:40 AM EDT 9:58 PM EDT
Nautical Twilight 4:55 AM EDT 10:42 PM EDT
Astronomical Twilight 4:01 AM EDT 11:36 PM EDT
Moon 6:45 PM EDT (7/13) 3:36 AM EDT (7/13)
Length of Visible Light 16h 18m
Length of Day
15h 08m
Waxing Gibbous, 90% of the Moon is Illuminated
Jul 13
Waxing Gibbous
Jul 16
Full
Jul 24
Last Quarter
Jul 31
New
Aug 7
First Quarter

Hourly Weather History & Observations

Time (EDT) Temp. Heat Index Dew Point Humidity Pressure Visibility Wind Dir Wind Speed Gust Speed Precip Events Conditions
12:17 AM 61.9 °F - 54.9 °F 78% 29.93 in 10.0 mi Calm Calm - N/A   Clear
12:35 AM 61.5 °F - 54.7 °F 78% 29.93 in 10.0 mi Calm Calm - N/A   Scattered Clouds
12:55 AM 63.9 °F - 55.9 °F 75% 29.93 in 10.0 mi Calm Calm - N/A   Overcast
12:56 AM 63.9 °F - 55.9 °F 75% 29.93 in 10.0 mi Calm Calm - N/A   Overcast
1:15 AM 64.0 °F - 55.0 °F 73% 29.93 in 10.0 mi Calm Calm - N/A   Scattered Clouds
1:19 AM 63.9 °F - 55.2 °F 73% 29.92 in 10.0 mi Calm Calm - N/A   Scattered Clouds
1:38 AM 63.5 °F - 55.4 °F 75% 29.92 in 10.0 mi South 3.5 mph - N/A   Clear
1:56 AM 63.0 °F - 55.4 °F 76% 29.91 in 10.0 mi SSW 3.5 mph - N/A   Clear
2:15 AM 63.7 °F - 55.4 °F 74% 29.91 in 10.0 mi Calm Calm - N/A   Clear
2:35 AM 63.9 °F - 55.6 °F 74% 29.90 in 10.0 mi SSW 4.6 mph - N/A   Clear
2:59 AM 63.3 °F - 55.8 °F 76% 29.89 in 10.0 mi Calm Calm - N/A   Clear
3:17 AM 62.8 °F - 55.9 °F 78% 29.89 in 10.0 mi Calm Calm - N/A   Clear
3:35 AM 62.1 °F - 56.3 °F 81% 29.89 in 10.0 mi Calm Calm - N/A   Clear
3:55 AM 62.6 °F - 56.3 °F 80% 29.89 in 10.0 mi Calm Calm - N/A   Clear
4:15 AM 62.6 °F - 56.5 °F 80% 29.88 in 10.0 mi Calm Calm - N/A   Clear
4:20 AM 62.2 °F - 56.7 °F 82% 29.88 in 10.0 mi Calm Calm - N/A   Clear
4:38 AM 61.9 °F - 56.8 °F 84% 29.89 in 10.0 mi Calm Calm - N/A   Clear
4:56 AM 62.2 °F - 57.4 °F 84% 29.89 in 10.0 mi Calm Calm - N/A   Clear
5:15 AM 62.1 °F - 58.3 °F 87% 29.89 in 10.0 mi Calm Calm - N/A   Clear
5:16 AM 62.1 °F - 58.3 °F 87% 29.89 in 10.0 mi Calm Calm - N/A   Clear
5:35 AM 60.8 °F - 58.3 °F 91% 29.89 in 10.0 mi Calm Calm - N/A   Clear
5:36 AM 60.8 °F - 58.3 °F 91% 29.89 in 10.0 mi Calm Calm - N/A   Clear
5:55 AM 61.0 °F - 59.0 °F 93% 29.89 in 10.0 mi Calm Calm - N/A   Clear
6:18 AM 61.7 °F - 59.5 °F 93% 29.91 in 10.0 mi Calm Calm - N/A   Clear
6:36 AM 61.9 °F - 59.4 °F 91% 29.91 in 10.0 mi Calm Calm - N/A   Clear
6:55 AM 62.4 °F - 59.9 °F 91% 29.92 in 10.0 mi Calm Calm - N/A   Clear
7:15 AM 64.0 °F - 61.2 °F 90% 29.92 in 10.0 mi Calm Calm - N/A   Clear
7:16 AM 64.2 °F - 61.2 °F 90% 29.92 in 10.0 mi Calm Calm - N/A   Clear
7:39 AM 67.5 °F - 61.9 °F 82% 29.92 in 10.0 mi Calm Calm - N/A   Clear
7:57 AM 69.8 °F - 62.4 °F 77% 29.92 in 10.0 mi WSW 3.5 mph - N/A   Clear
8:15 AM 71.6 °F - 62.2 °F 72% 29.92 in 10.0 mi Calm Calm - N/A   Clear
8:16 AM 71.6 °F - 62.1 °F 72% 29.92 in 10.0 mi West 3.5 mph - N/A   Clear
8:35 AM 72.9 °F - 62.2 °F 69% 29.92 in 10.0 mi West 4.6 mph - N/A   Clear
8:55 AM 74.3 °F - 62.8 °F 67% 29.93 in 10.0 mi WSW 5.8 mph - N/A   Scattered Clouds
9:18 AM 75.9 °F - 63.3 °F 65% 29.94 in 10.0 mi West 4.6 mph - N/A   Clear
9:36 AM 77.0 °F - 63.7 °F 63% 29.94 in 10.0 mi West 6.9 mph - N/A   Clear
9:55 AM 77.0 °F - 64.2 °F 65% 29.94 in 10.0 mi West 5.8 mph - N/A   Clear
10:15 AM 79.0 °F - 64.9 °F 62% 29.94 in 10.0 mi West 6.9 mph - N/A   Clear
10:39 AM 79.5 °F - 65.3 °F 62% 29.94 in 10.0 mi West 4.6 mph - N/A   Clear
10:57 AM 80.6 °F 82.5 °F 65.7 °F 60% 29.94 in 10.0 mi WSW 4.6 mph - N/A   Clear
11:15 AM 81.1 °F 83.1 °F 65.7 °F 59% 29.94 in 10.0 mi SW 3.5 mph - N/A   Clear
11:35 AM 82.2 °F 84.4 °F 66.0 °F 58% 29.95 in 10.0 mi West 3.5 mph - N/A   Clear
11:36 AM 82.2 °F 84.4 °F 66.2 °F 58% 29.95 in 10.0 mi West 5.8 mph - N/A   Clear
11:55 AM 83.7 °F 86.2 °F 66.7 °F 57% 29.95 in 10.0 mi West 8.1 mph - N/A   Clear
11:59 AM 84.0 °F 86.5 °F 66.6 °F 56% 29.95 in 10.0 mi West 9.2 mph - N/A   Clear
12:17 PM 84.2 °F 86.8 °F 66.9 °F 56% 29.94 in 10.0 mi West 5.8 mph - N/A   Clear
12:35 PM 85.6 °F 88.5 °F 67.1 °F 54% 29.95 in 10.0 mi West 8.1 mph - N/A   Scattered Clouds
12:55 PM 86.2 °F 88.4 °F 66.0 °F 51% 29.95 in 10.0 mi WSW 10.4 mph 17.3 mph N/A   Scattered Clouds
1:15 PM 87.4 °F 88.8 °F 64.4 °F 46% 29.95 in 10.0 mi West 10.4 mph 17.3 mph N/A   Scattered Clouds
1:20 PM 87.1 °F 88.9 °F 64.9 °F 48% 29.96 in 10.0 mi West 11.5 mph 16.1 mph N/A   Scattered Clouds
1:38 PM 87.8 °F 89.7 °F 65.3 °F 47% 29.96 in 10.0 mi West 10.4 mph 16.1 mph N/A   Scattered Clouds
1:56 PM 86.2 °F 87.9 °F 65.1 °F 49% 29.97 in 10.0 mi WNW 11.5 mph 20.7 mph N/A   Scattered Clouds
2:15 PM 86.0 °F 87.6 °F 64.8 °F 49% 29.98 in 10.0 mi WNW 13.8 mph 20.7 mph N/A   Scattered Clouds
2:16 PM 86.0 °F 87.6 °F 64.6 °F 49% 29.98 in 10.0 mi WNW 16.1 mph 20.7 mph N/A   Scattered Clouds
2:35 PM 85.6 °F 87.1 °F 64.8 °F 49% 29.98 in 10.0 mi WNW 12.7 mph - N/A   Clear
2:36 PM 85.6 °F 87.4 °F 64.9 °F 50% 29.98 in 10.0 mi WNW 15.0 mph - N/A   Clear
2:59 PM 84.4 °F 86.1 °F 64.8 °F 52% 29.98 in 10.0 mi West 10.4 mph - N/A   Clear
3:17 PM 82.0 °F 83.4 °F 64.0 °F 54% 30.00 in 10.0 mi NW 13.8 mph - N/A   Clear
3:35 PM 82.6 °F 83.2 °F 61.7 °F 49% 30.00 in 10.0 mi NW 16.1 mph 20.7 mph N/A   Clear
3:36 PM 82.6 °F 83.2 °F 61.5 °F 49% 30.00 in 10.0 mi NW 16.1 mph 20.7 mph N/A   Clear
3:55 PM 82.6 °F 83.2 °F 61.5 °F 49% 29.99 in 10.0 mi NNW 10.4 mph 19.6 mph N/A   Clear
4:15 PM 81.9 °F 81.9 °F 58.8 °F 45% 29.99 in 10.0 mi NNW 10.4 mph 18.4 mph N/A   Clear
4:38 PM 82.8 °F 81.7 °F 54.3 °F 37% 29.99 in 10.0 mi NNW 12.7 mph - N/A   Clear
4:56 PM 83.8 °F - 52.9 °F 34% 29.99 in 10.0 mi NNW 12.7 mph 16.1 mph N/A   Clear
5:15 PM 83.7 °F - 52.9 °F 34% 29.99 in 10.0 mi NNW 15.0 mph 19.6 mph N/A   Clear
5:16 PM 83.7 °F - 52.9 °F 34% 29.99 in 10.0 mi NNW 15.0 mph 19.6 mph N/A   Clear
5:35 PM 83.1 °F - 51.1 °F 33% 29.99 in 10.0 mi NW 12.7 mph 19.6 mph N/A   Clear
5:36 PM 82.9 °F - 51.1 °F 33% 29.99 in 10.0 mi NNW 15.0 mph 19.6 mph N/A   Clear
5:59 PM 82.0 °F - 52.2 °F 35% 29.98 in 10.0 mi North 12.7 mph 17.3 mph N/A   Clear
6:17 PM 81.9 °F - 52.3 °F 36% 29.98 in 10.0 mi North 10.4 mph - N/A   Clear
6:35 PM 81.0 °F - 51.4 °F 36% 29.98 in 10.0 mi North 10.4 mph - N/A   Clear
6:55 PM 80.6 °F - 52.2 °F 37% 30.00 in 10.0 mi NNW 9.2 mph - N/A   Clear
6:56 PM 80.6 °F - 52.2 °F 37% 30.00 in 10.0 mi NNW 9.2 mph - N/A   Clear
7:15 PM 80.6 °F - 52.0 °F 37% 30.01 in 10.0 mi North 6.9 mph - N/A   Clear
7:20 PM 80.6 °F - 52.9 °F 38% 30.01 in 10.0 mi North 5.8 mph - N/A   Clear
7:38 PM 79.7 °F - 54.3 °F 41% 30.01 in 10.0 mi North 9.2 mph - N/A   Clear
7:56 PM 78.3 °F - 54.1 °F 43% 30.01 in 10.0 mi NNW 9.2 mph - N/A   Clear
8:15 PM 77.4 °F - 53.8 °F 44% 30.02 in 10.0 mi North 6.9 mph - N/A   Clear
8:35 PM 76.6 °F - 55.6 °F 48% 30.02 in 10.0 mi North 6.9 mph - N/A   Clear
8:59 PM 75.2 °F - 55.2 °F 50% 30.03 in 10.0 mi North 5.8 mph - N/A   Clear
9:17 PM 73.2 °F - 54.9 °F 52% 30.03 in 10.0 mi North 6.9 mph - N/A   Clear
9:35 PM 71.8 °F - 53.8 °F 53% 30.04 in 10.0 mi North 3.5 mph - N/A   Clear
9:55 PM 71.4 °F - 53.8 °F 54% 30.04 in 10.0 mi North 3.5 mph - N/A   Clear
10:15 PM 70.3 °F - 54.0 °F 56% 30.05 in 10.0 mi Calm Calm - N/A   Clear
10:20 PM 70.7 °F - 54.0 °F 55% 30.05 in 10.0 mi Calm Calm - N/A   Clear
10:38 PM 69.1 °F - 54.5 °F 60% 30.05 in 10.0 mi Calm Calm - N/A   Clear
10:56 PM 69.8 °F - 53.8 °F 57% 30.06 in 10.0 mi Calm Calm - N/A   Clear
11:15 PM 68.0 °F - 54.5 °F 62% 30.06 in 10.0 mi Calm Calm - N/A   Clear
11:35 PM 66.4 °F - 55.2 °F 67% 30.07 in 10.0 mi Calm Calm - N/A   Clear
11:59 PM 65.5 °F - 55.4 °F 70% 30.07 in 10.0 mi NE 3.5 mph - N/A   Clear